DEEMH LIMJ-EDDM

Flight info

Callsign DEEMH
Flight time 1h 38m
Altitude 15000
Route LAGEN1K TOP DCT VOG DCT BRL DCT OZE DCT KPT DCT OTT
Aircraft BE36/L-VGD/A

Departure

Time 2026-04-17 10:45
Airport Genoa Cristoforo Colombo Airport (LIMJ)

Arrival

Time 2026-04-17 12:23
Airport Munich Airport (EDDM)
Time Latitude Longitude Altitude Speed Heading
2026-04-17 10:28 44.41890 8.85329 12 ft 0 kts 323°
2026-04-17 10:39 44.41891 8.85329 12 ft 1 kts 336°
2026-04-17 10:39 44.41894 8.85343 12 ft 4 kts 155°
2026-04-17 10:39 44.41852 8.85324 12 ft 9 kts 235°
2026-04-17 10:39 44.41804 8.85253 12 ft 11 kts 243°
2026-04-17 10:40 44.41750 8.85158 12 ft 14 kts 232°
2026-04-17 10:40 44.41683 8.85046 12 ft 16 kts 225°
2026-04-17 10:40 44.41603 8.84927 12 ft 16 kts 228°
2026-04-17 10:40 44.41543 8.84825 12 ft 14 kts 232°
2026-04-17 10:41 44.41493 8.84734 12 ft 12 kts 230°
2026-04-17 10:41 44.41432 8.84652 12 ft 13 kts 171°
2026-04-17 10:41 44.41389 8.84758 12 ft 14 kts 105°
2026-04-17 10:41 44.41364 8.84893 12 ft 14 kts 107°
2026-04-17 10:42 44.41287 8.84941 12 ft 15 kts 196°
2026-04-17 10:42 44.41187 8.84902 9 ft 15 kts 195°
2026-04-17 10:42 44.41155 8.84889 9 ft 0 kts 201°
2026-04-17 10:44 44.41154 8.84888 9 ft 3 kts 201°
2026-04-17 10:44 44.41097 8.84852 11 ft 14 kts 210°
2026-04-17 10:44 44.41080 8.84772 11 ft 8 kts 279°
2026-04-17 10:44 44.41082 8.84761 11 ft 4 kts 286°
2026-04-17 10:45 44.41165 8.84340 16 ft 84 kts 287°
2026-04-17 10:45 44.41354 8.83432 288 ft 101 kts 286°
2026-04-17 10:45 44.41561 8.82463 681 ft 108 kts 286°
2026-04-17 10:45 44.41783 8.81465 1058 ft 107 kts 286°
2026-04-17 10:46 44.41995 8.80449 1350 ft 109 kts 285°
2026-04-17 10:46 44.42193 8.79441 1660 ft 111 kts 286°
2026-04-17 10:46 44.42293 8.78325 2034 ft 122 kts 264°
2026-04-17 10:46 44.41823 8.77317 2373 ft 133 kts 221°
2026-04-17 10:47 44.40969 8.76778 2634 ft 139 kts 191°
2026-04-17 10:47 44.40009 8.76935 2871 ft 142 kts 160°
2026-04-17 10:47 44.39083 8.77455 3133 ft 143 kts 158°
2026-04-17 10:47 44.38175 8.77962 3440 ft 140 kts 158°
2026-04-17 10:48 44.37279 8.78454 3741 ft 136 kts 159°
2026-04-17 10:48 44.36383 8.78917 3955 ft 141 kts 160°
2026-04-17 10:48 44.35472 8.79408 4211 ft 139 kts 156°
2026-04-17 10:48 44.34584 8.79957 4461 ft 140 kts 153°
2026-04-17 10:49 44.33704 8.80540 4699 ft 140 kts 152°
2026-04-17 10:49 44.32817 8.81140 4891 ft 143 kts 151°
2026-04-17 10:49 44.31912 8.81721 5085 ft 145 kts 161°
2026-04-17 10:49 44.30906 8.81854 5271 ft 146 kts 183°
2026-04-17 10:50 44.29896 8.81748 5485 ft 144 kts 185°
2026-04-17 10:50 44.28891 8.81634 5694 ft 145 kts 184°
2026-04-17 10:50 44.27884 8.81562 5928 ft 144 kts 182°
2026-04-17 10:50 44.26891 8.81517 6211 ft 140 kts 181°
2026-04-17 10:51 44.25921 8.81496 6441 ft 139 kts 181°
2026-04-17 10:51 44.24951 8.81466 6651 ft 140 kts 182°
2026-04-17 10:51 44.24000 8.81429 6870 ft 139 kts 182°
2026-04-17 10:51 44.23020 8.81381 7024 ft 143 kts 183°
2026-04-17 10:52 44.22030 8.81284 7205 ft 142 kts 194°
2026-04-17 10:52 44.21317 8.80438 7398 ft 137 kts 251°
2026-04-17 10:52 44.21244 8.79156 7598 ft 132 kts 291°
2026-04-17 10:52 44.21679 8.78042 7799 ft 131 kts 302°
2026-04-17 10:53 44.22150 8.76963 8004 ft 130 kts 303°
2026-04-17 10:53 44.22774 8.76117 8204 ft 127 kts 344°
2026-04-17 10:53 44.23649 8.75995 8410 ft 126 kts 358°
2026-04-17 10:53 44.24522 8.76064 8615 ft 126 kts 10°
2026-04-17 10:54 44.25373 8.76332 8819 ft 125 kts 12°
2026-04-17 10:54 44.26210 8.76650 9024 ft 124 kts 14°
2026-04-17 10:54 44.27039 8.76983 9230 ft 124 kts 15°
2026-04-17 10:54 44.27860 8.77322 9437 ft 122 kts 15°
2026-04-17 10:55 44.28666 8.77666 9646 ft 120 kts 15°
2026-04-17 10:55 44.29458 8.78007 9853 ft 118 kts 15°
2026-04-17 10:55 44.30235 8.78341 10054 ft 115 kts 16°
2026-04-17 10:55 44.30990 8.78658 10242 ft 112 kts 16°
2026-04-17 10:56 44.31720 8.78984 10431 ft 108 kts 15°
2026-04-17 10:56 44.32422 8.79299 10615 ft 104 kts 15°
2026-04-17 10:56 44.33098 8.79596 10776 ft 102 kts 17°
2026-04-17 10:56 44.33780 8.79891 10893 ft 103 kts 15°
2026-04-17 10:57 44.34470 8.80183 11019 ft 104 kts 16°
2026-04-17 10:57 44.35159 8.80472 11138 ft 103 kts 15°
2026-04-17 10:57 44.35840 8.80769 11266 ft 102 kts 15°
2026-04-17 10:57 44.36513 8.81064 11385 ft 100 kts 17°
2026-04-17 10:58 44.37175 8.81349 11508 ft 98 kts 14°
2026-04-17 10:58 44.37823 8.81623 11628 ft 97 kts 15°
2026-04-17 10:58 44.38479 8.81900 11762 ft 101 kts 14°
2026-04-17 10:58 44.39174 8.82200 11898 ft 108 kts 16°
2026-04-17 10:59 44.39904 8.82520 12039 ft 113 kts 15°
2026-04-17 10:59 44.40662 8.82852 12224 ft 114 kts 15°
2026-04-17 10:59 44.41416 8.83178 12435 ft 113 kts 14°
2026-04-17 10:59 44.42169 8.83496 12637 ft 114 kts 15°
2026-04-17 11:00 44.42929 8.83818 12819 ft 115 kts 16°
2026-04-17 11:00 44.43694 8.84146 12992 ft 115 kts 15°
2026-04-17 11:00 44.44457 8.84471 13170 ft 115 kts 15°
2026-04-17 11:00 44.45220 8.84797 13351 ft 115 kts 15°
2026-04-17 11:01 44.45980 8.85121 13537 ft 114 kts 15°
2026-04-17 11:01 44.46739 8.85441 13705 ft 114 kts 16°
2026-04-17 11:01 44.47506 8.85831 13806 ft 122 kts 22°
2026-04-17 11:01 44.48291 8.86377 13826 ft 129 kts 26°
2026-04-17 11:02 44.49106 8.86990 13854 ft 137 kts 27°
2026-04-17 11:02 44.49961 8.87649 13867 ft 144 kts 28°
2026-04-17 11:02 44.50855 8.88340 13870 ft 149 kts 28°
2026-04-17 11:02 44.51777 8.89061 13869 ft 154 kts 28°
2026-04-17 11:03 44.52719 8.89798 13868 ft 156 kts 27°
2026-04-17 11:03 44.53675 8.90548 13867 ft 158 kts 28°
2026-04-17 11:03 44.54643 8.91298 13864 ft 160 kts 27°
2026-04-17 11:03 44.55626 8.92041 13863 ft 161 kts 27°
2026-04-17 11:04 44.56614 8.92783 13880 ft 160 kts 27°
2026-04-17 11:04 44.57592 8.93519 13927 ft 158 kts 27°
2026-04-17 11:04 44.58547 8.94235 13979 ft 157 kts 26°
2026-04-17 11:04 44.59523 8.94964 14028 ft 157 kts 27°
2026-04-17 11:05 44.60464 8.95668 14094 ft 154 kts 26°
2026-04-17 11:05 44.61407 8.96373 14164 ft 152 kts 25°
2026-04-17 11:05 44.62356 8.97018 14222 ft 151 kts 24°
2026-04-17 11:05 44.63304 8.97633 14295 ft 150 kts 23°
2026-04-17 11:06 44.64251 8.98237 14370 ft 149 kts 22°
2026-04-17 11:06 44.65192 8.98834 14439 ft 148 kts 23°
2026-04-17 11:06 44.66127 8.99428 14512 ft 147 kts 22°
2026-04-17 11:06 44.67059 9.00018 14581 ft 147 kts 22°
2026-04-17 11:07 44.67979 9.00633 14655 ft 147 kts 30°
2026-04-17 11:07 44.68816 9.01454 14725 ft 147 kts 34°
2026-04-17 11:07 44.69620 9.02348 14783 ft 149 kts 37°
2026-04-17 11:07 44.70426 9.03282 14809 ft 151 kts 37°
2026-04-17 11:08 44.71208 9.04284 14839 ft 154 kts 46°
2026-04-17 11:08 44.71908 9.05433 14863 ft 155 kts 47°
2026-04-17 11:08 44.72597 9.06614 14873 ft 157 kts 49°
2026-04-17 11:08 44.73286 9.07823 14881 ft 159 kts 48°
2026-04-17 11:09 44.73979 9.09043 14882 ft 160 kts 49°
2026-04-17 11:09 44.74678 9.10275 14882 ft 162 kts 49°
2026-04-17 11:09 44.75380 9.11515 14886 ft 163 kts 49°
2026-04-17 11:10 44.76792 9.14020 14893 ft 164 kts 48°
2026-04-17 11:10 44.77504 9.15280 14888 ft 165 kts 49°
2026-04-17 11:10 44.78216 9.16544 14881 ft 164 kts 49°
2026-04-17 11:10 44.78926 9.17804 14883 ft 164 kts 49°
2026-04-17 11:11 44.79636 9.19066 14885 ft 165 kts 49°
2026-04-17 11:11 44.80347 9.20329 14884 ft 164 kts 49°
2026-04-17 11:11 44.81059 9.21589 14885 ft 164 kts 49°
2026-04-17 11:11 44.81771 9.22849 14880 ft 164 kts 49°
2026-04-17 11:12 44.82477 9.24115 14882 ft 164 kts 49°
2026-04-17 11:12 44.83188 9.25373 14881 ft 164 kts 48°
2026-04-17 11:12 44.83906 9.26620 14884 ft 164 kts 47°
2026-04-17 11:12 44.84627 9.27869 14881 ft 164 kts 48°
2026-04-17 11:13 44.85347 9.29116 14892 ft 164 kts 49°
2026-04-17 11:13 44.86071 9.30366 14891 ft 165 kts 48°
2026-04-17 11:13 44.86793 9.31598 14888 ft 165 kts 47°
2026-04-17 11:13 44.87513 9.32849 14886 ft 164 kts 47°
2026-04-17 11:14 44.88233 9.34095 14889 ft 164 kts 48°
2026-04-17 11:14 44.88953 9.35345 14888 ft 164 kts 48°
2026-04-17 11:14 44.89675 9.36592 14884 ft 164 kts 48°
2026-04-17 11:14 44.90398 9.37838 14885 ft 164 kts 48°
2026-04-17 11:15 44.91117 9.39084 14886 ft 164 kts 48°
2026-04-17 11:15 44.91839 9.40327 14888 ft 164 kts 47°
2026-04-17 11:15 44.92562 9.41575 14890 ft 164 kts 48°
2026-04-17 11:15 44.93286 9.42825 14888 ft 164 kts 49°
2026-04-17 11:16 44.94006 9.44073 14886 ft 164 kts 47°
2026-04-17 11:16 44.94724 9.45322 14886 ft 164 kts 47°
2026-04-17 11:16 44.95443 9.46566 14890 ft 164 kts 47°
2026-04-17 11:16 44.96168 9.47811 14893 ft 164 kts 48°
2026-04-17 11:17 44.96887 9.49068 14894 ft 165 kts 49°
2026-04-17 11:17 44.97606 9.50325 14890 ft 164 kts 48°
2026-04-17 11:17 44.98326 9.51581 14887 ft 164 kts 49°
2026-04-17 11:17 44.99049 9.52833 14893 ft 165 kts 48°
2026-04-17 11:18 44.99773 9.54086 14887 ft 164 kts 47°
2026-04-17 11:18 45.00492 9.55342 14888 ft 164 kts 47°
2026-04-17 11:18 45.01214 9.56595 14887 ft 164 kts 49°
2026-04-17 11:18 45.01937 9.57844 14886 ft 164 kts 48°
2026-04-17 11:19 45.02676 9.59073 14883 ft 163 kts 39°
2026-04-17 11:19 45.03678 9.59746 14887 ft 160 kts 17°
2026-04-17 11:19 45.04742 9.60206 14889 ft 160 kts 14°
2026-04-17 11:19 45.05453 9.60487 14888 ft 160 kts 14°
2026-04-17 11:20 45.06884 9.61018 14887 ft 161 kts 13°
2026-04-17 11:20 45.07967 9.61412 14889 ft 161 kts 13°
2026-04-17 11:20 45.08699 9.61677 14887 ft 160 kts 13°
2026-04-17 11:20 45.09781 9.62066 14886 ft 160 kts 12°
2026-04-17 11:21 45.11841 9.62799 14899 ft 162 kts 13°
2026-04-17 11:21 45.23071 9.66833 14881 ft 162 kts 13°
2026-04-17 11:21 45.34367 9.70916 14877 ft 163 kts 13°
2026-04-17 11:21 45.35463 9.71316 14875 ft 162 kts 13°
2026-04-17 11:22 45.36556 9.71710 14875 ft 162 kts 13°
2026-04-17 11:22 45.37652 9.72104 14875 ft 162 kts 13°
2026-04-17 11:22 45.38749 9.72496 14876 ft 163 kts 13°
2026-04-17 11:22 45.44216 9.74464 14876 ft 163 kts 13°
2026-04-17 11:23 45.51535 9.77111 14908 ft 163 kts 13°
2026-04-17 11:23 45.57897 9.79406 14912 ft 162 kts 13°
2026-04-17 11:23 45.75332 9.85721 14918 ft 161 kts 13°
2026-04-17 11:23 45.92720 9.92147 14921 ft 161 kts 13°
2026-04-17 11:24 46.09782 9.98535 14927 ft 159 kts 13°
2026-04-17 11:24 46.27128 10.05163 14947 ft 160 kts 13°
2026-04-17 11:24 46.32778 10.07351 14943 ft 161 kts 13°
2026-04-17 11:24 46.33859 10.07770 14946 ft 161 kts 13°
2026-04-17 11:25 46.34939 10.08186 14946 ft 161 kts 13°
2026-04-17 11:25 46.36020 10.08601 14947 ft 161 kts 13°
2026-04-17 11:25 46.37100 10.09019 14948 ft 160 kts 13°
2026-04-17 11:25 46.38178 10.09436 14958 ft 161 kts 13°
2026-04-17 11:26 46.39245 10.09851 14952 ft 161 kts 13°
2026-04-17 11:26 46.40320 10.10267 14936 ft 159 kts 13°
2026-04-17 11:26 46.41386 10.10683 14928 ft 158 kts 13°
2026-04-17 11:26 46.42445 10.11109 14945 ft 158 kts 13°
2026-04-17 11:27 46.43512 10.11526 14957 ft 159 kts 13°
2026-04-17 11:27 46.44587 10.11944 14953 ft 160 kts 13°
2026-04-17 11:27 46.45664 10.12363 14948 ft 160 kts 13°
2026-04-17 11:27 46.46741 10.12781 14957 ft 161 kts 13°
2026-04-17 11:28 46.47822 10.13201 14950 ft 161 kts 13°
2026-04-17 11:28 46.48904 10.13622 14948 ft 161 kts 13°
2026-04-17 11:28 46.49987 10.14044 14961 ft 162 kts 13°
2026-04-17 11:28 46.51080 10.14466 14965 ft 163 kts 13°
2026-04-17 11:29 46.52181 10.14891 14972 ft 164 kts 13°
2026-04-17 11:29 46.53290 10.15320 14957 ft 165 kts 13°
2026-04-17 11:29 46.54398 10.15747 14946 ft 164 kts 13°
2026-04-17 11:29 46.55501 10.16172 14943 ft 164 kts 13°
2026-04-17 11:30 46.56604 10.16557 14943 ft 163 kts 10°
2026-04-17 11:30 46.57715 10.16875 14945 ft 163 kts
2026-04-17 11:30 46.58826 10.17169 14936 ft 161 kts
2026-04-17 11:30 46.59928 10.17449 14933 ft 160 kts
2026-04-17 11:31 46.61011 10.17722 14941 ft 160 kts
2026-04-17 11:31 46.62109 10.17986 14944 ft 160 kts
2026-04-17 11:31 46.63219 10.18253 14947 ft 160 kts
2026-04-17 11:31 46.64315 10.18519 14956 ft 160 kts
2026-04-17 11:32 46.65419 10.18789 14965 ft 161 kts
2026-04-17 11:32 46.66533 10.19058 14956 ft 162 kts
2026-04-17 11:32 46.67630 10.19293 14955 ft 161 kts
2026-04-17 11:32 46.68745 10.19519 14994 ft 164 kts
2026-04-17 11:33 46.69874 10.19661 14986 ft 162 kts
2026-04-17 11:33 46.71003 10.19789 14974 ft 163 kts
2026-04-17 11:33 46.72134 10.19999 14973 ft 164 kts
2026-04-17 11:33 46.73265 10.20235 14983 ft 164 kts
2026-04-17 11:34 46.74398 10.20461 15003 ft 164 kts
2026-04-17 11:34 46.75533 10.20667 15000 ft 164 kts
2026-04-17 11:34 46.76669 10.20858 14988 ft 165 kts
2026-04-17 11:34 46.77806 10.21078 14983 ft 165 kts
2026-04-17 11:35 46.78934 10.21429 14957 ft 165 kts
2026-04-17 11:35 46.80063 10.21687 14956 ft 163 kts
2026-04-17 11:35 46.81191 10.21914 14958 ft 164 kts
2026-04-17 11:35 46.82325 10.22132 14954 ft 164 kts
2026-04-17 11:36 46.83442 10.22341 14955 ft 162 kts
2026-04-17 11:36 46.84568 10.22581 14952 ft 164 kts
2026-04-17 11:36 46.85701 10.22786 14942 ft 163 kts
2026-04-17 11:36 46.86811 10.22985 14956 ft 159 kts
2026-04-17 11:37 46.87906 10.23198 14954 ft 159 kts
2026-04-17 11:37 46.88922 10.23845 14947 ft 163 kts 31°
2026-04-17 11:37 46.89858 10.24780 14949 ft 163 kts 31°
2026-04-17 11:37 46.90794 10.25715 14950 ft 163 kts 31°
2026-04-17 11:38 46.91734 10.26656 14956 ft 164 kts 31°
2026-04-17 11:38 46.92675 10.27606 14960 ft 165 kts 31°
2026-04-17 11:38 46.93608 10.28560 14962 ft 166 kts 31°
2026-04-17 11:38 46.94556 10.29530 14962 ft 166 kts 31°
2026-04-17 11:39 46.95508 10.30502 14965 ft 167 kts 31°
2026-04-17 11:39 46.96464 10.31480 14961 ft 167 kts 31°
2026-04-17 11:39 46.97420 10.32460 14961 ft 168 kts 31°
2026-04-17 11:39 46.98382 10.33443 14963 ft 169 kts 31°
2026-04-17 11:40 46.99343 10.34429 14960 ft 169 kts 31°
2026-04-17 11:40 47.00310 10.35418 14959 ft 169 kts 31°
2026-04-17 11:40 47.01262 10.36404 14957 ft 167 kts 32°
2026-04-17 11:40 47.02209 10.37378 14958 ft 166 kts 31°
2026-04-17 11:41 47.03157 10.38348 14960 ft 167 kts 31°
2026-04-17 11:41 47.04112 10.39328 14962 ft 169 kts 31°
2026-04-17 11:41 47.05069 10.40315 14952 ft 167 kts 31°
2026-04-17 11:41 47.06021 10.41291 14954 ft 167 kts 31°
2026-04-17 11:42 47.06975 10.42274 14952 ft 168 kts 31°
2026-04-17 11:42 47.07930 10.43254 14952 ft 167 kts 31°
2026-04-17 11:42 47.08879 10.44227 14948 ft 165 kts 32°
2026-04-17 11:42 47.09816 10.45178 14943 ft 164 kts 32°
2026-04-17 11:43 47.10751 10.46144 14952 ft 165 kts 31°
2026-04-17 11:43 47.11695 10.47116 14956 ft 166 kts 31°
2026-04-17 11:43 47.12639 10.48095 14957 ft 166 kts 31°
2026-04-17 11:43 47.13573 10.49071 14948 ft 162 kts 32°
2026-04-17 11:44 47.14496 10.50028 14953 ft 162 kts 31°
2026-04-17 11:44 47.15418 10.50985 14946 ft 162 kts 31°
2026-04-17 11:44 47.16336 10.51946 14945 ft 162 kts 31°
2026-04-17 11:44 47.17257 10.52908 14945 ft 162 kts 31°
2026-04-17 11:45 47.18187 10.53874 14952 ft 165 kts 31°
2026-04-17 11:45 47.19128 10.54848 14956 ft 166 kts 31°
2026-04-17 11:45 47.20075 10.55833 14954 ft 167 kts 32°
2026-04-17 11:45 47.21009 10.56802 14959 ft 167 kts 32°
2026-04-17 11:46 47.21965 10.57792 14953 ft 168 kts 31°
2026-04-17 11:46 47.22913 10.58768 14954 ft 166 kts 31°
2026-04-17 11:46 47.23855 10.59751 14953 ft 167 kts 32°
2026-04-17 11:46 47.24803 10.60740 14959 ft 168 kts 31°
2026-04-17 11:47 47.25767 10.61737 14955 ft 169 kts 31°
2026-04-17 11:47 47.26728 10.62736 14955 ft 169 kts 32°
2026-04-17 11:47 47.27692 10.63736 14959 ft 170 kts 32°
2026-04-17 11:47 47.28657 10.64735 14954 ft 169 kts 31°
2026-04-17 11:48 47.29617 10.65735 14954 ft 169 kts 31°
2026-04-17 11:48 47.30581 10.66736 14953 ft 170 kts 31°
2026-04-17 11:48 47.31547 10.67742 14944 ft 169 kts 31°
2026-04-17 11:48 47.32498 10.68734 14944 ft 167 kts 31°
2026-04-17 11:49 47.42849 10.79629 14935 ft 168 kts 31°
2026-04-17 11:49 47.53677 10.91163 14956 ft 167 kts 33°
2026-04-17 11:49 47.58212 10.96391 14940 ft 163 kts 33°
2026-04-17 11:49 47.65705 11.05140 14950 ft 166 kts 33°
2026-04-17 11:50 47.73764 11.14594 14955 ft 164 kts 33°
2026-04-17 11:50 47.80484 11.22516 14950 ft 165 kts 33°
2026-04-17 11:50 47.81387 11.23579 14943 ft 165 kts 33°
2026-04-17 11:50 47.82286 11.24639 14947 ft 165 kts 33°
2026-04-17 11:51 47.83183 11.25700 14945 ft 165 kts 33°
2026-04-17 11:51 47.84081 11.26762 14952 ft 164 kts 33°
2026-04-17 11:51 47.84991 11.27838 14756 ft 172 kts 34°
2026-04-17 11:51 47.85953 11.28963 14523 ft 179 kts 33°
2026-04-17 11:52 47.86950 11.30115 14290 ft 183 kts 34°
2026-04-17 11:52 47.87965 11.31279 14069 ft 185 kts 33°
2026-04-17 11:52 47.88989 11.32457 13815 ft 187 kts 33°
2026-04-17 11:52 47.90021 11.33640 13545 ft 188 kts 34°
2026-04-17 11:53 47.91062 11.34824 13289 ft 188 kts 33°
2026-04-17 11:53 47.91990 11.36215 13027 ft 192 kts 49°
2026-04-17 11:53 47.92792 11.37811 12771 ft 193 kts 49°
2026-04-17 11:53 47.93595 11.39412 12517 ft 193 kts 50°
2026-04-17 11:54 47.94400 11.41008 12269 ft 193 kts 50°
2026-04-17 11:54 47.95199 11.42614 12012 ft 193 kts 51°
2026-04-17 11:54 47.95999 11.44211 11762 ft 192 kts 51°
2026-04-17 11:54 47.96800 11.45778 11518 ft 193 kts 50°
2026-04-17 11:55 47.97613 11.47362 11264 ft 192 kts 49°
2026-04-17 11:55 47.98426 11.48943 11024 ft 191 kts 50°
2026-04-17 11:55 47.99242 11.50511 10785 ft 192 kts 50°
2026-04-17 11:55 48.00074 11.52073 10548 ft 193 kts 49°
2026-04-17 11:56 48.03683 11.58758 9487 ft 195 kts 50°
2026-04-17 11:56 48.08911 11.68044 7934 ft 191 kts 49°
2026-04-17 11:56 48.09845 11.69454 7694 ft 190 kts 45°
2026-04-17 11:56 48.10790 11.70803 7450 ft 183 kts 45°
2026-04-17 11:57 48.11714 11.72068 7201 ft 177 kts 43°
2026-04-17 11:57 48.12624 11.73285 6951 ft 174 kts 43°
2026-04-17 11:57 48.13521 11.74473 6705 ft 171 kts 45°
2026-04-17 11:57 48.14404 11.75647 6453 ft 169 kts 44°
2026-04-17 11:58 48.15284 11.76801 6190 ft 167 kts 43°
2026-04-17 11:58 48.16144 11.77961 5934 ft 166 kts 47°
2026-04-17 11:58 48.16930 11.79240 5681 ft 167 kts 49°
2026-04-17 11:58 48.17706 11.80525 5426 ft 166 kts 49°
2026-04-17 11:59 48.18291 11.81977 5175 ft 163 kts 72°
2026-04-17 11:59 48.18617 11.83595 4974 ft 159 kts 76°
2026-04-17 11:59 48.18870 11.85130 4981 ft 147 kts 77°
2026-04-17 11:59 48.19104 11.86594 4987 ft 142 kts 79°
2026-04-17 12:00 48.19058 11.88043 4974 ft 138 kts 108°
2026-04-17 12:00 48.18640 11.89295 4983 ft 132 kts 118°
2026-04-17 12:00 48.17909 11.90038 4983 ft 135 kts 169°
2026-04-17 12:00 48.17037 11.89534 4982 ft 145 kts 225°
2026-04-17 12:01 48.16690 11.88123 4979 ft 151 kts 268°
2026-04-17 12:01 48.16689 11.86578 4988 ft 146 kts 269°
2026-04-17 12:01 48.16686 11.85072 4988 ft 144 kts 270°
2026-04-17 12:01 48.16768 11.83586 4987 ft 141 kts 293°
2026-04-17 12:02 48.17341 11.82427 4980 ft 139 kts 314°
2026-04-17 12:02 48.17921 11.81301 4979 ft 136 kts 293°
2026-04-17 12:02 48.18033 11.79913 4999 ft 136 kts 266°
2026-04-17 12:02 48.17996 11.78481 4994 ft 139 kts 271°
2026-04-17 12:03 48.18041 11.77028 5003 ft 140 kts 272°
2026-04-17 12:03 48.18080 11.75559 4992 ft 142 kts 272°
2026-04-17 12:03 48.18186 11.74103 4996 ft 139 kts 275°
2026-04-17 12:03 48.18115 11.72650 4988 ft 140 kts 258°
2026-04-17 12:04 48.17889 11.71239 4999 ft 141 kts 255°
2026-04-17 12:04 48.17736 11.70287 4998 ft 143 kts 255°
2026-04-17 12:04 48.17489 11.68835 4994 ft 146 kts 254°
2026-04-17 12:04 48.17236 11.67333 4993 ft 151 kts 254°
2026-04-17 12:05 48.16997 11.65779 4990 ft 153 kts 261°
2026-04-17 12:05 48.16916 11.64184 4999 ft 154 kts 266°
2026-04-17 12:05 48.16848 11.62560 4990 ft 157 kts 265°
2026-04-17 12:05 48.16778 11.60933 4993 ft 156 kts 266°
2026-04-17 12:06 48.16708 11.59311 4988 ft 156 kts 265°
2026-04-17 12:06 48.16633 11.57692 4978 ft 157 kts 266°
2026-04-17 12:06 48.16558 11.56060 4974 ft 156 kts 265°
2026-04-17 12:06 48.16483 11.54444 4973 ft 156 kts 265°
2026-04-17 12:07 48.16410 11.52828 4976 ft 155 kts 266°
2026-04-17 12:07 48.16337 11.51213 4973 ft 155 kts 266°
2026-04-17 12:07 48.16256 11.49604 4970 ft 154 kts 266°
2026-04-17 12:07 48.16179 11.48007 4973 ft 154 kts 265°
2026-04-17 12:08 48.16073 11.46409 4967 ft 153 kts 263°
2026-04-17 12:08 48.15965 11.44824 4968 ft 154 kts 264°
2026-04-17 12:08 48.15849 11.43228 4969 ft 155 kts 263°
2026-04-17 12:08 48.15739 11.41612 4972 ft 157 kts 263°
2026-04-17 12:09 48.15624 11.39979 4970 ft 159 kts 264°
2026-04-17 12:09 48.15506 11.38334 4970 ft 159 kts 263°
2026-04-17 12:09 48.15394 11.36690 4969 ft 158 kts 266°
2026-04-17 12:09 48.15715 11.35173 4960 ft 155 kts 310°
2026-04-17 12:10 48.16393 11.33926 4968 ft 154 kts 311°
2026-04-17 12:10 48.17065 11.32682 4968 ft 153 kts 313°
2026-04-17 12:10 48.17743 11.31447 4971 ft 154 kts 311°
2026-04-17 12:10 48.18430 11.30206 4976 ft 156 kts 311°
2026-04-17 12:11 48.19226 11.29149 4965 ft 153 kts 341°
2026-04-17 12:11 48.20239 11.29131 4964 ft 144 kts 14°
2026-04-17 12:11 48.21211 11.29424 4966 ft 141 kts 16°
2026-04-17 12:12 48.23130 11.29991 4962 ft 139 kts 15°
2026-04-17 12:12 48.24073 11.30283 4963 ft 137 kts 15°
2026-04-17 12:12 48.24996 11.30593 4966 ft 135 kts 17°
2026-04-17 12:12 48.25923 11.30888 4965 ft 136 kts 16°
2026-04-17 12:13 48.26835 11.31247 4964 ft 133 kts 31°
2026-04-17 12:13 48.27423 11.32254 4969 ft 129 kts 60°
2026-04-17 12:13 48.27894 11.33395 4973 ft 127 kts 58°
2026-04-17 12:13 48.28356 11.34529 4968 ft 128 kts 59°
2026-04-17 12:14 48.28808 11.35669 4975 ft 127 kts 65°
2026-04-17 12:14 48.29135 11.36895 4972 ft 125 kts 69°
2026-04-17 12:14 48.29472 11.38104 4972 ft 126 kts 68°
2026-04-17 12:14 48.29802 11.39310 4972 ft 125 kts 68°
2026-04-17 12:15 48.30148 11.40523 4971 ft 127 kts 68°
2026-04-17 12:15 48.30507 11.41739 4973 ft 128 kts 66°
2026-04-17 12:15 48.30887 11.42954 4990 ft 128 kts 65°
2026-04-17 12:15 48.31273 11.44167 4989 ft 129 kts 66°
2026-04-17 12:16 48.31653 11.45390 4992 ft 130 kts 70°
2026-04-17 12:16 48.31826 11.46717 4934 ft 132 kts 84°
2026-04-17 12:16 48.31927 11.48118 4790 ft 134 kts 84°
2026-04-17 12:16 48.32020 11.49479 4637 ft 127 kts 83°
2026-04-17 12:17 48.32110 11.50792 4480 ft 126 kts 83°
2026-04-17 12:17 48.32189 11.52075 4310 ft 121 kts 84°
2026-04-17 12:17 48.32267 11.53329 4165 ft 121 kts 83°
2026-04-17 12:17 48.32381 11.54576 4024 ft 120 kts 81°
2026-04-17 12:18 48.32505 11.55793 3891 ft 116 kts 81°
2026-04-17 12:18 48.32628 11.56969 3767 ft 113 kts 81°
2026-04-17 12:18 48.32734 11.58136 3633 ft 112 kts 84°
2026-04-17 12:18 48.32805 11.59297 3513 ft 112 kts 83°
2026-04-17 12:19 48.32877 11.60472 3376 ft 113 kts 81°
2026-04-17 12:19 48.33019 11.61623 3252 ft 112 kts 79°
2026-04-17 12:19 48.33127 11.62772 3138 ft 111 kts 82°
2026-04-17 12:19 48.33221 11.63937 2987 ft 115 kts 83°
2026-04-17 12:20 48.33316 11.65140 2836 ft 118 kts 82°
2026-04-17 12:20 48.33404 11.66368 2734 ft 117 kts 85°
2026-04-17 12:20 48.33484 11.67557 2611 ft 113 kts 82°
2026-04-17 12:20 48.33585 11.68672 2412 ft 104 kts 81°
2026-04-17 12:21 48.33666 11.69726 2280 ft 100 kts 82°
2026-04-17 12:21 48.33745 11.70743 2168 ft 96 kts 83°
2026-04-17 12:21 48.33805 11.71745 2019 ft 98 kts 83°
2026-04-17 12:21 48.33896 11.72768 1860 ft 99 kts 82°
2026-04-17 12:22 48.33966 11.73804 1744 ft 101 kts 81°
2026-04-17 12:22 48.34049 11.74854 1613 ft 102 kts 81°
2026-04-17 12:22 48.34128 11.75893 1486 ft 93 kts 81°
2026-04-17 12:22 48.34194 11.76701 1480 ft 65 kts 82°
2026-04-17 12:23 48.34243 11.77326 1480 ft 61 kts 84°
2026-04-17 12:23 48.34291 11.77947 1480 ft 57 kts 82°
2026-04-17 12:23 48.34333 11.78526 1480 ft 58 kts 82°
2026-04-17 12:23 48.34385 11.79030 1477 ft 33 kts 67°
2026-04-17 12:24 48.34513 11.79313 1480 ft 33 kts 52°
2026-04-17 12:24 48.34569 11.79425 1480 ft 0 kts 52°
2026-04-17 12:24 48.34569 11.79426 1480 ft 1 kts 52°
2026-04-17 12:24 48.34599 11.79486 1480 ft 14 kts 54°
2026-04-17 12:25 48.34677 11.79640 1480 ft 20 kts 52°
2026-04-17 12:25 48.34771 11.79708 1480 ft 15 kts 353°
2026-04-17 12:25 48.34884 11.79691 1480 ft 18 kts 353°
2026-04-17 12:25 48.34997 11.79669 1477 ft 12 kts 354°
2026-04-17 12:26 48.35071 11.79713 1480 ft 14 kts 68°
2026-04-17 12:26 48.35085 11.79877 1475 ft 18 kts 83°
2026-04-17 12:26 48.35100 11.80074 1475 ft 20 kts 84°
2026-04-17 12:26 48.35131 11.80228 1480 ft 13 kts 15°
2026-04-17 12:27 48.35237 11.80214 1480 ft 17 kts 354°
2026-04-17 12:27 48.35353 11.80193 1480 ft 14 kts 353°
2026-04-17 12:27 48.35410 11.80226 1480 ft 10 kts 80°
2026-04-17 12:27 48.35418 11.80335 1480 ft 11 kts 85°
2026-04-17 12:28 48.35425 11.80433 1480 ft 8 kts 83°
2026-04-17 12:28 48.35428 11.80478 1480 ft 2 kts 84°
2026-04-17 12:28 48.35429 11.80480 1480 ft 0 kts 84°